Time,TemperatureF,DewpointF,PressureIn,WindDirection,WindDirectionDegrees,WindSpeedMPH,WindSpeedGustMPH,Humidity,HourlyPrecipIn,Conditions,Clouds,dailyrainin,SoftwareType,DateUTC
2013-01-02 00:00:00,27.3,22.0,30.16,NW,318,0.0,1.0,81,0.00,,,0.03,weatherlink.com 1.10,2013-01-02 05:00:00,
2013-01-02 00:15:00,27.1,22.0,30.16,NNE,33,1.0,5.0,81,0.00,,,0.00,weatherlink.com 1.10,2013-01-02 05:15:00,
2013-01-02 00:31:00,26.9,22.0,30.16,NE,55,1.0,4.0,82,0.00,,,0.00,weatherlink.com 1.10,2013-01-02 05:31:00,
2013-01-02 00:46:00,26.7,22.0,30.16,NNE,33,0.0,3.0,83,0.00,,,0.00,weatherlink.com 1.10,2013-01-02 05:46:00,
2013-01-02 01:01:00,26.4,22.0,30.16,NNW,330,0.0,1.0,84,0.00,,,0.00,weatherlink.com 1.10,2013-01-02 06:01:00,
2013-01-02 01:16:00,26.2,22.0,30.17,North,349,2.0,2.0,85,0.00,,,0.00,weatherlink.com 1.10,2013-01-02 06:16:00,
2013-01-02 01:31:00,26.0,22.0,30.16,North,5,0.0,1.0,85,0.00,,,0.00,weatherlink.com 1.10,2013-01-02 06:31:00,
2013-01-02 01:46:00,25.8,22.0,30.16,North,8,0.0,1.0,86,0.00,,,0.00,weatherlink.com 1.10,2013-01-02 06:46:00,
2013-01-02 02:01:00,25.6,22.0,30.15,North,8,0.0,0.0,86,0.00,,,0.00,weatherlink.com 1.10,2013-01-02 07:01:00,
2013-01-02 02:16:00,25.5,22.0,30.15,North,4,0.0,0.0,86,0.00,,,0.00,weatherlink.com 1.10,2013-01-02 07:16:00,
2013-01-02 02:31:00,25.1,22.0,30.16,North,359,0.0,1.0,86,0.00,,,0.00,weatherlink.com 1.10,2013-01-02 07:31:00,
2013-01-02 02:46:00,25.1,21.0,30.16,North,360,0.0,0.0,84,0.00,,,0.00,weatherlink.com 1.10,2013-01-02 07:46:00,
2013-01-02 03:01:00,25.1,21.0,30.17,North,360,0.0,0.0,84,0.00,,,0.00,weatherlink.com 1.10,2013-01-02 08:01:00,
2013-01-02 03:16:00,25.0,22.0,30.18,NW,307,1.0,2.0,87,0.00,,,0.00,weatherlink.com 1.10,2013-01-02 08:16:00,
2013-01-02 03:31:00,25.0,22.0,30.18,NW,312,0.0,2.0,87,0.00,,,0.00,weatherlink.com 1.10,2013-01-02 08:31:00,
2013-01-02 03:46:00,24.9,22.0,30.18,NW,314,0.0,2.0,87,0.00,,,0.00,weatherlink.com 1.10,2013-01-02 08:46:00,
2013-01-02 04:01:00,24.9,22.0,30.18,NW,309,0.0,3.0,88,0.00,,,0.00,weatherlink.com 1.10,2013-01-02 09:01:00,
2013-01-02 04:16:00,24.6,22.0,30.18,NW,309,0.0,2.0,88,0.00,,,0.00,weatherlink.com 1.10,2013-01-02 09:16:00,
2013-01-02 04:31:00,24.4,22.0,30.19,WNW,290,1.0,1.0,89,0.00,,,0.00,weatherlink.com 1.10,2013-01-02 09:31:00,
2013-01-02 04:46:00,24.2,22.0,30.18,WNW,284,2.0,4.0,90,0.00,,,0.00,weatherlink.com 1.10,2013-01-02 09:46:00,
2013-01-02 05:01:00,24.1,22.0,30.18,NW,305,1.0,3.0,91,0.00,,,0.00,weatherlink.com 1.10,2013-01-02 10:01:00,
2013-01-02 05:16:00,23.6,21.0,30.18,WNW,296,0.0,2.0,91,0.00,,,0.00,weatherlink.com 1.10,2013-01-02 10:16:00,
2013-01-02 05:31:00,23.3,21.0,30.19,WNW,291,0.0,2.0,91,0.00,,,0.00,weatherlink.com 1.10,2013-01-02 10:31:00,
2013-01-02 05:46:00,23.1,21.0,30.20,NNW,342,0.0,3.0,91,0.00,,,0.00,weatherlink.com 1.10,2013-01-02 10:46:00,
2013-01-02 06:01:00,22.7,21.0,30.19,NW,305,1.0,3.0,92,0.00,,,0.00,weatherlink.com 1.10,2013-01-02 11:01:00,
2013-01-02 06:16:00,22.5,21.0,30.19,WNW,302,0.0,2.0,92,0.00,,,0.00,weatherlink.com 1.10,2013-01-02 11:16:00,
2013-01-02 06:31:00,22.2,20.0,30.20,WNW,302,0.0,1.0,92,0.00,,,0.00,weatherlink.com 1.10,2013-01-02 11:31:00,
2013-01-02 06:48:00,21.7,20.0,30.20,West,276,0.0,2.0,93,0.00,,,0.00,weatherlink.com 1.10,2013-01-02 11:48:00,
2013-01-02 07:01:00,21.2,20.0,30.20,NNW,345,0.0,1.0,93,0.00,,,0.00,weatherlink.com 1.10,2013-01-02 12:01:00,
2013-01-02 07:16:00,20.9,19.0,30.21,ENE,65,0.0,2.0,93,0.00,,,0.00,weatherlink.com 1.10,2013-01-02 12:16:00,
2013-01-02 07:32:00,20.6,19.0,30.21,West,267,0.0,1.0,93,0.00,,,0.00,weatherlink.com 1.10,2013-01-02 12:32:00,
2013-01-02 07:47:00,20.4,19.0,30.21,SSW,207,0.0,1.0,94,0.00,,,0.00,weatherlink.com 1.10,2013-01-02 12:47:00,
2013-01-02 08:02:00,20.4,19.0,30.22,SW,224,0.0,0.0,94,0.00,,,0.00,weatherlink.com 1.10,2013-01-02 13:02:00,
2013-01-02 08:17:00,20.5,19.0,30.23,WSW,242,0.0,0.0,95,0.00,,,0.00,weatherlink.com 1.10,2013-01-02 13:17:00,
2013-01-02 08:32:00,21.2,20.0,30.23,WSW,243,0.0,0.0,94,0.00,,,0.00,weatherlink.com 1.10,2013-01-02 13:32:00,
2013-01-02 08:47:00,22.3,21.0,30.23,West,276,0.0,1.0,94,0.00,,,0.00,weatherlink.com 1.10,2013-01-02 13:47:00,
2013-01-02 09:02:00,23.6,22.0,30.24,West,264,0.0,1.0,93,0.00,,,0.00,weatherlink.com 1.10,2013-01-02 14:02:00,
2013-01-02 09:17:00,24.4,22.0,30.24,West,274,0.0,2.0,91,0.00,,,0.00,weatherlink.com 1.10,2013-01-02 14:17:00,
2013-01-02 09:32:00,25.4,22.0,30.25,WSW,256,1.0,4.0,88,0.00,,,0.00,weatherlink.com 1.10,2013-01-02 14:32:00,
2013-01-02 09:47:00,26.5,23.0,30.25,WNW,283,2.0,3.0,85,0.00,,,0.00,weatherlink.com 1.10,2013-01-02 14:47:00,
2013-01-02 10:02:00,27.4,23.0,30.25,NNE,23,0.0,2.0,83,0.00,,,0.00,weatherlink.com 1.10,2013-01-02 15:02:00,
2013-01-02 10:17:00,28.6,24.0,30.26,NW,316,0.0,1.0,82,0.00,,,0.00,weatherlink.com 1.10,2013-01-02 15:17:00,
2013-01-02 10:32:00,28.5,24.0,30.25,NE,42,1.0,4.0,82,0.00,,,0.00,weatherlink.com 1.10,2013-01-02 15:32:00,
2013-01-02 10:47:00,28.4,23.0,30.26,WNW,293,0.0,3.0,81,0.00,,,0.00,weatherlink.com 1.10,2013-01-02 15:47:00,
2013-01-02 11:02:00,29.3,24.0,30.26,West,263,1.0,3.0,79,0.00,,,0.00,weatherlink.com 1.10,2013-01-02 16:02:00,
2013-01-02 11:17:00,29.3,23.0,30.27,SW,217,0.0,5.0,78,0.00,,,0.00,weatherlink.com 1.10,2013-01-02 16:17:00,
2013-01-02 11:32:00,30.2,24.0,30.26,West,267,4.0,6.0,76,0.00,,,0.00,weatherlink.com 1.10,2013-01-02 16:32:00,
2013-01-02 11:47:00,30.6,24.0,30.25,WSW,238,0.0,5.0,75,0.00,,,0.00,weatherlink.com 1.10,2013-01-02 16:47:00,
2013-01-02 12:02:00,30.7,23.0,30.25,WSW,246,4.0,5.0,74,0.00,,,0.00,weatherlink.com 1.10,2013-01-02 17:02:00,
2013-01-02 12:17:00,30.5,24.0,30.25,West,271,2.0,6.0,76,0.00,,,0.00,weatherlink.com 1.10,2013-01-02 17:17:00,
2013-01-02 12:32:00,30.9,24.0,30.24,WNW,298,3.0,5.0,75,0.00,,,0.00,weatherlink.com 1.10,2013-01-02 17:32:00,
2013-01-02 12:47:00,31.0,23.0,30.23,WSW,246,1.0,5.0,72,0.00,,,0.00,weatherlink.com 1.10,2013-01-02 17:47:00,
2013-01-02 13:02:00,31.4,22.0,30.23,West,267,1.0,4.0,67,0.00,,,0.00,weatherlink.com 1.10,2013-01-02 18:02:00,
2013-01-02 13:17:00,31.5,22.0,30.23,WNW,299,4.0,4.0,69,0.00,,,0.00,weatherlink.com 1.10,2013-01-02 18:17:00,
2013-01-02 13:32:00,32.2,22.0,30.22,WNW,294,4.0,4.0,67,0.00,,,0.00,weatherlink.com 1.10,2013-01-02 18:32:00,
2013-01-02 13:47:00,32.7,22.0,30.22,NNW,338,2.0,4.0,65,0.00,,,0.00,weatherlink.com 1.10,2013-01-02 18:47:00,
2013-01-02 14:02:00,32.2,22.0,30.22,WNW,290,0.0,3.0,67,0.00,,,0.00,weatherlink.com 1.10,2013-01-02 19:02:00,
2013-01-02 14:17:00,31.8,22.0,30.22,West,280,1.0,4.0,66,0.00,,,0.00,weatherlink.com 1.10,2013-01-02 19:17:00,
2013-01-02 14:32:00,32.9,22.0,30.21,SSW,212,1.0,3.0,65,0.00,,,0.00,weatherlink.com 1.10,2013-01-02 19:32:00,
2013-01-02 14:47:00,33.4,23.0,30.22,NW,326,0.0,3.0,67,0.00,,,0.00,weatherlink.com 1.10,2013-01-02 19:47:00,
2013-01-02 15:18:00,33.8,23.0,30.21,NNE,30,1.0,1.0,64,0.00,,,0.00,weatherlink.com 1.10,2013-01-02 20:18:00,
2013-01-02 15:33:00,33.3,21.0,30.21,West,266,0.0,3.0,62,0.00,,,0.00,weatherlink.com 1.10,2013-01-02 20:33:00,
2013-01-02 15:48:00,33.6,21.0,30.21,WNW,283,1.0,4.0,60,0.00,,,0.00,weatherlink.com 1.10,2013-01-02 20:48:00,
2013-01-02 16:03:00,33.9,19.0,30.21,South,179,0.0,3.0,55,0.00,,,0.00,weatherlink.com 1.10,2013-01-02 21:03:00,
2013-01-02 16:18:00,33.9,19.0,30.21,WNW,303,2.0,4.0,55,0.00,,,0.00,weatherlink.com 1.10,2013-01-02 21:18:00,
2013-01-02 16:33:00,33.1,21.0,30.22,SW,219,0.0,3.0,61,0.00,,,0.00,weatherlink.com 1.10,2013-01-02 21:33:00,
2013-01-02 17:03:00,31.4,20.0,30.21,WNW,293,0.0,2.0,63,0.00,,,0.00,weatherlink.com 1.10,2013-01-02 22:03:00,
2013-01-02 17:18:00,30.8,19.0,30.22,West,271,0.0,1.0,63,0.00,,,0.00,weatherlink.com 1.10,2013-01-02 22:18:00,
2013-01-02 17:33:00,30.3,19.0,30.22,West,271,0.0,1.0,64,0.00,,,0.00,weatherlink.com 1.10,2013-01-02 22:33:00,
2013-01-02 17:48:00,29.9,19.0,30.23,West,271,0.0,1.0,65,0.00,,,0.00,weatherlink.com 1.10,2013-01-02 22:48:00,
2013-01-02 18:03:00,29.7,20.0,30.23,WNW,289,0.0,1.0,67,0.00,,,0.00,weatherlink.com 1.10,2013-01-02 23:03:00,
2013-01-02 18:18:00,29.6,19.0,30.23,West,278,0.0,1.0,66,0.00,,,0.00,weatherlink.com 1.10,2013-01-02 23:18:00,
2013-01-02 18:33:00,29.1,19.0,30.24,North,1,1.0,1.0,67,0.00,,,0.00,weatherlink.com 1.10,2013-01-02 23:33:00,
2013-01-02 18:48:00,29.0,19.0,30.24,North,359,1.0,2.0,66,0.00,,,0.00,weatherlink.com 1.10,2013-01-02 23:48:00,
2013-01-02 19:03:00,28.8,19.0,30.24,NW,313,0.0,1.0,66,0.00,,,0.00,weatherlink.com 1.10,2013-01-03 00:03:00,
2013-01-02 19:18:00,28.6,19.0,30.25,NNE,15,1.0,2.0,68,0.00,,,0.00,weatherlink.com 1.10,2013-01-03 00:18:00,
2013-01-02 19:33:00,28.2,20.0,30.25,NW,322,0.0,3.0,70,0.00,,,0.00,weatherlink.com 1.10,2013-01-03 00:33:00,
2013-01-02 19:48:00,27.9,20.0,30.25,WNW,293,0.0,3.0,71,0.00,,,0.00,weatherlink.com 1.10,2013-01-03 00:48:00,
2013-01-02 20:03:00,27.6,20.0,30.25,NE,41,1.0,4.0,72,0.00,,,0.00,weatherlink.com 1.10,2013-01-03 01:03:00,
2013-01-02 20:18:00,27.2,20.0,30.26,NW,316,2.0,2.0,73,0.00,,,0.00,weatherlink.com 1.10,2013-01-03 01:18:00,
2013-01-02 20:33:00,26.8,19.0,30.26,NNW,330,1.0,3.0,71,0.00,,,0.00,weatherlink.com 1.10,2013-01-03 01:33:00,
2013-01-02 20:48:00,26.5,18.0,30.26,NW,305,0.0,3.0,71,0.00,,,0.00,weatherlink.com 1.10,2013-01-03 01:48:00,
2013-01-02 21:03:00,26.2,18.0,30.26,NW,321,2.0,3.0,71,0.00,,,0.00,weatherlink.com 1.10,2013-01-03 02:03:00,
2013-01-02 21:18:00,26.1,18.0,30.26,NNE,25,0.0,3.0,71,0.00,,,0.00,weatherlink.com 1.10,2013-01-03 02:18:00,
2013-01-02 21:33:00,25.9,18.0,30.26,North,6,0.0,4.0,71,0.00,,,0.00,weatherlink.com 1.10,2013-01-03 02:33:00,
2013-01-02 21:48:00,25.7,18.0,30.26,North,1,1.0,2.0,73,0.00,,,0.00,weatherlink.com 1.10,2013-01-03 02:48:00,
2013-01-02 22:03:00,25.5,18.0,30.26,NNE,30,1.0,2.0,72,0.00,,,0.00,weatherlink.com 1.10,2013-01-03 03:03:00,
2013-01-02 22:18:00,25.3,18.0,30.25,NNE,25,1.0,2.0,74,0.00,,,0.00,weatherlink.com 1.10,2013-01-03 03:18:00,
2013-01-02 22:33:00,25.1,18.0,30.25,NNE,14,0.0,3.0,74,0.00,,,0.00,weatherlink.com 1.10,2013-01-03 03:33:00,
2013-01-02 22:48:00,24.8,18.0,30.25,NNE,19,1.0,2.0,75,0.00,,,0.00,weatherlink.com 1.10,2013-01-03 03:48:00,
2013-01-02 23:18:00,24.3,18.0,30.25,NNE,13,0.0,1.0,76,0.00,,,0.00,weatherlink.com 1.10,2013-01-03 04:18:00,
2013-01-02 23:33:00,23.9,17.0,30.25,NNE,13,0.0,1.0,76,0.00,,,0.00,weatherlink.com 1.10,2013-01-03 04:33:00,
2013-01-02 23:48:00,23.6,17.0,30.25,NNE,13,0.0,1.0,75,0.00,,,0.00,weatherlink.com 1.10,2013-01-03 04:48:00,